Location: Bílinka
(49.3579°N, 14.3767°E)
Time: 01:29:32
(UTC+00:00)

Cosmos 1697 Rocket - Pass Details

Date: 28 January 2023
Orbit: 834 x 841 km, 71.0° (Epoch: 31 March)

Event Time Altitude Azimuth Distance (km) Brightness Sun altitude
Rises 16:57:55 0° 213° (SSW) 3,385 6.6 -10.9°
Reaches altitude 10° 17:00:22 10° 215° (SW) 2,454 5.9 -11.3°
Maximum altitude 17:06:00 73° 300° (WNW) 880 2.9 -12.2°
Drops below altitude 10° 17:11:40 10° 26° (NNE) 2,466 4.8 -13.1°
Enters shadow 17:13:01 - 27° (NNE) 2,982 5.2 -13.3°
